MST,Max TemperatureF,Mean TemperatureF,Min TemperatureF,Max Dew PointF,MeanDew PointF,Min DewpointF,Max Humidity, Mean Humidity, Min Humidity, Max Sea Level PressureIn, Mean Sea Level PressureIn, Min Sea Level PressureIn, Max VisibilityMiles, Mean VisibilityMiles, Min VisibilityMiles, Max Wind SpeedMPH, Mean Wind SpeedMPH, Max Gust SpeedMPH,PrecipitationIn, CloudCover, Events, WindDirDegrees
2012-11-1,61,51,40,38,35,31,76,56,36,30.04,29.89,29.81,10,10,10,22,5,31,0.00,3,,283
2012-11-2,56,45,34,37,33,30,82,63,44,30.20,30.13,30.02,10,10,9,21,8,28,0.02,5,Rain,249
2012-11-3,51,39,27,36,31,26,92,71,50,30.26,30.20,30.12,10,10,10,8,1,13,T,3,,323
2012-11-4,60,54,47,38,37,34,56,50,43,30.34,30.28,30.16,10,10,10,24,9,32,T,6,Rain,256
2012-11-5,67,57,47,40,37,32,71,50,29,30.30,30.20,30.12,10,10,10,30,10,40,0.00,3,,278
2012-11-6,60,51,41,38,36,34,76,58,40,30.26,30.13,29.95,10,10,10,14,3,18,0.00,0,,287
2012-11-7,59,47,34,36,29,20,79,60,40,30.04,29.91,29.74,10,10,10,25,7,31,0.00,2,,261
2012-11-8,36,31,26,27,24,19,92,72,52,30.07,29.89,29.74,10,3,0,12,8,18,0.85,8,Fog-Snow,285
2012-11-9,27,19,11,25,14,7,92,84,76,30.15,29.90,29.72,7,1,0,16,9,18,0.52,8,Fog-Snow,287
2012-11-10,14,6,-2,7,2,-6,87,73,58,30.31,30.10,29.91,10,5,1,12,5,15,0.06,7,Snow,276
2012-11-11,27,10,-7,12,3,-7,95,73,50,30.46,30.39,30.09,10,9,7,18,4,22,0.00,3,,250
2012-11-12,29,19,9,22,15,6,84,67,50,30.46,30.40,30.35,10,10,9,10,3,15,0.00,6,,271
2012-11-13,41,34,27,29,26,21,85,75,64,30.38,30.31,30.24,10,10,9,10,3,13,0.00,5,,180
2012-11-14,43,33,22,29,25,22,88,70,51,30.39,30.28,30.11,10,10,10,18,6,24,0.00,4,,238
2012-11-15,38,30,21,26,23,18,92,78,64,30.41,30.31,30.17,10,10,10,9,2,12,0.00,1,,257
2012-11-16,35,27,19,26,22,16,85,75,64,30.18,30.14,30.09,10,10,8,7,1,8,0.00,2,,238
2012-11-17,41,31,21,30,25,19,96,80,64,30.16,30.02,29.81,10,8,1,8,2,10,0.00,2,,269
2012-11-18,43,33,23,31,26,20,89,70,51,30.12,29.95,29.74,10,10,10,30,7,38,T,2,Rain,288
2012-11-19,52,36,20,29,24,17,84,61,38,30.15,30.06,29.92,10,10,10,28,9,38,0.00,0,,208
2012-11-20,58,52,45,35,32,29,61,49,36,29.92,29.85,29.79,10,10,10,26,13,37,0.00,2,,192
2012-11-21,47,39,30,38,31,19,92,68,44,30.09,29.86,29.74,10,9,3,22,7,30,0.30,5,Rain-Snow,257
2012-11-22,40,32,23,23,18,15,74,56,37,30.60,30.43,30.12,10,10,9,40,11,52,T,2,Snow,266
2012-11-23,42,32,21,23,20,16,84,63,41,30.58,30.39,30.18,10,10,10,7,2,8,0.00,0,,275
2012-11-24,50,38,25,34,27,21,81,65,49,30.17,30.11,30.00,10,10,10,18,5,22,0.00,4,,257
2012-11-25,39,32,25,29,20,13,75,54,33,30.37,30.17,30.03,10,10,9,24,7,31,T,6,Snow,279
2012-11-26,34,26,18,18,16,14,84,66,47,30.44,30.36,30.14,10,10,10,9,3,12,0.00,0,,12
2012-11-27,33,26,19,23,19,15,84,73,61,30.38,30.31,30.25,10,10,9,5,0,6,0.00,0,,250
2012-11-28,41,32,22,25,23,19,92,69,46,30.24,30.11,29.97,10,10,8,7,1,7,0.00,1,,255
2012-11-29,50,40,30,33,28,24,89,63,36,30.04,29.95,29.85,10,10,10,15,3,22,0.00,4,,247
2012-11-30,53,45,36,39,32,27,89,69,49,29.85,29.72,29.62,10,10,7,18,4,26,0.03,3,,233